QPF
0.00 0.00 0.00 0.00 0.00 0.00 0.00 0.00 0.00 0.00 0.00 0.00 0.00 0.00 0.00 0.00 0.00 0.00 0.00 0.00 0.00 0.00 0.00 0.00 0.00 0.00 0.00 0.00 0.00 0.00 0.00 0.00 0.00 0.00 0.00 0.00 0.00 0.00 0.00 0.00 0.00 0.00 0.00 0.00 0.00 0.00 0.01 0.01 0.01
0.00 0.00 0.00 0.00 0.00 0.00 0.00 0.00 0.00 0.00 0.00 0.00 0.00 0.00 0.00 0.00 0.00 0.00 0.00 0.00 0.00 0.00 0.00 0.00 0.00 0.00 0.00 0.00 0.00 0.00 0.00 0.00 0.00 0.00 0.00 0.00 0.00 0.00 0.00 0.00 0.00 0.00 0.00 0.00 0.00 0.00 0.00 0.00 0.00
0.00 0.00 0.00 0.00 0.00 0.00 0.00 0.00 0.00 0.00 0.00 0.00 0.00 0.00 0.00 0.00 0.00 0.00 0.00 0.00 0.00 0.00 0.00 0.00 0.00 0.00 0.00 0.00 0.00 0.00 0.00 0.00 0.00 0.00 0.00 0.00 0.00 0.00 0.00 0.00 0.00 0.00 0.00 0.00 0.00 0.00 0.00 0.00 0.00
0.00 0.00 0.00 0.00 0.00 0.00 0.00 0.00 0.00 0.00 0.00 0.00 0.00 0.00 0.00 0.00 0.00 0.00 0.00 0.00 0.00 0.00 0.00 0.00 0.00 0.00 0.00 0.00 0.00 0.00 0.00 0.00 0.00 0.00 0.00 0.00 0.00 0.00 0.00 0.00 0.00 0.00 0.00 0.00 0.00 0.00 0.00 0.00 0.00
0.00 0.00 0.00 0.00 0.00 0.00 0.00 0.00 0.00 0.00 0.00 0.00 0.00 0.00 0.00 0.00 0.00 0.00 0.00 0.00 0.00 0.00 0.00 0.00 0.00 0.00 0.00 0.00 0.00 0.00 0.00 0.00 0.00 0.00 0.00 0.00 0.00 0.00 0.00 0.00 0.00 0.00 0.00 0.00 0.00 0.00 0.00 0.00 0.00
0.00 0.00 0.00 0.00 0.00 0.00 0.00 0.00 0.00 0.00 0.00 0.00 0.00 0.00 0.00 0.00 0.00 0.00 0.00 0.00 0.00 0.00 0.00 0.00 0.00 0.00 0.00 0.00 0.00 0.00 0.00 0.00 0.00 0.00 0.00 0.00 0.00 0.00 0.00 0.00 0.00 0.00 0.00 0.00 0.00 0.00 0.00 0.00 0.00
0.00 0.00 0.00 0.00 0.00 0.00 0.00 0.00 0.00 0.00 0.00 0.00 0.00 0.00 0.00 0.00 0.00 0.00 0.00 0.00 0.00 0.00 0.00 0.00 0.00 0.00 0.00 0.00 0.00 0.00 0.00 0.00 0.00 0.00 0.00 0.00 0.00 0.00 0.00 0.00 0.00 0.00 0.00 0.00 0.00 0.00 0.00 0.00 0.00
0.00 0.00 0.00 0.00 0.00 0.00 0.00 0.00 0.00 0.00 0.00 0.00 0.00 0.00 0.00 0.00 0.00 0.00 0.00 0.00 0.00 0.00 0.00 0.00 0.00 0.00 0.00 0.00 0.00 0.00 0.00 0.00 0.00 0.00 0.00 0.00 0.00 0.00 0.00 0.00 0.00 0.00 0.00 0.00 0.00 0.00 0.00 0.00 0.00
0.00 0.00 0.00 0.00 0.00 0.00 0.00 0.00 0.00 0.00 0.00 0.00 0.00 0.00 0.00 0.00 0.00 0.00 0.00 0.00 0.00 0.00 0.00 0.00 0.00 0.00 0.00 0.00 0.00 0.00 0.00 0.00 0.00 0.00 0.00 0.00 0.00 0.00 0.00 0.00 0.00 0.00 0.00 0.00 0.00 0.00 0.00 0.00 0.00
0.00 0.00 0.00 0.00 0.00 0.00 0.00 0.00 0.00 0.00 0.00 0.00 0.00 0.00 0.00 0.00 0.00 0.00 0.00 0.00 0.00 0.00 0.00 0.00 0.00 0.00 0.00 0.00 0.00 0.00 0.00 0.00 0.00 0.00 0.00 0.00 0.00 0.00 0.00 0.00 0.00 0.00 0.00 0.00 0.00 0.00 0.00 0.00 0.00
0.00 0.00 0.00 0.00 0.00 0.00 0.00 0.00 0.00 0.00 0.00 0.00 0.00 0.00 0.00 0.00 0.00 0.00 0.00 0.00 0.00 0.00 0.00 0.00 0.00 0.00 0.00 0.00 0.00 0.00 0.00 0.00 0.00 0.00 0.00 0.00 0.00 0.00 0.00 0.00 0.00 0.00 0.00 0.00 0.00 0.00 0.00 0.00 0.00
0.00 0.00 0.00 0.00 0.00 0.00 0.00 0.00 0.00 0.00 0.00 0.00 0.00 0.00 0.00 0.00 0.00 0.00 0.00 0.00 0.00 0.00 0.00 0.00 0.00 0.00 0.00 0.00 0.00 0.00 0.00 0.00 0.00 0.00 0.00 0.00 0.00 0.00 0.00 0.00 0.00 0.00 0.00 0.00 0.00 0.00 0.00 0.00 0.00
0.00 0.00 0.00 0.00 0.00 0.00 0.00 0.00 0.00 0.00 0.00 0.00 0.00 0.00 0.00 0.00 0.00 0.00 0.00 0.00 0.00 0.00 0.00 0.00 0.00 0.00 0.00 0.00 0.00 0.00 0.00 0.00 0.00 0.00 0.00 0.00 0.00 0.00 0.00 0.00 0.00 0.00 0.00 0.00 0.00 0.00 0.00 0.00 0.00
0.00 0.00 0.00 0.00 0.00 0.00 0.00 0.00 0.00 0.00 0.00 0.00 0.00 0.00 0.00 0.00 0.00 0.00 0.00 0.00 0.00 0.00 0.00 0.00 0.00 0.00 0.00 0.00 0.00 0.00 0.00 0.00 0.00 0.00 0.00 0.00 0.00 0.00 0.00 0.00 0.00 0.00 0.00 0.00 0.00 0.00 0.00 0.00 0.00
0.00 0.00 0.00 0.00 0.00 0.00 0.00 0.00 0.00 0.00 0.00 0.00 0.00 0.00 0.00 0.00 0.00 0.00 0.00 0.00 0.00 0.00 0.00 0.00 0.00 0.00 0.00 0.00 0.00 0.00 0.00 0.00 0.00 0.00 0.00 0.00 0.00 0.00 0.00 0.00 0.00 0.00 0.00 0.00 0.00 0.00 0.00 0.00 0.00
0.00 0.00 0.00 0.00 0.00 0.00 0.00 0.00 0.00 0.00 0.00 0.00 0.00 0.00 0.00 0.00 0.00 0.00 0.00 0.00 0.00 0.00 0.00 0.00 0.00 0.00 0.00 0.00 0.00 0.00 0.00 0.00 0.00 0.00 0.00 0.00 0.00 0.00 0.00 0.00 0.00 0.00 0.00 0.00 0.00 0.00 0.00 0.00 0.00
0.00 0.00 0.00 0.00 0.00 0.00 0.00 0.00 0.00 0.00 0.00 0.00 0.00 0.00 0.00 0.00 0.00 0.00 0.00 0.00 0.00 0.00 0.00 0.00 0.00 0.00 0.00 0.00 0.00 0.00 0.00 0.00 0.00 0.00 0.00 0.00 0.00 0.00 0.00 0.00 0.00 0.00 0.00 0.00 0.00 0.00 0.00 0.00 0.00
0.00 0.00 0.00 0.00 0.00 0.00 0.00 0.00 0.00 0.00 0.00 0.00 0.00 0.00 0.00 0.00 0.00 0.00 0.00 0.00 0.00 0.00 0.00 0.00 0.00 0.00 0.00 0.00 0.00 0.00 0.00 0.00 0.00 0.00 0.00 0.00 0.00 0.00 0.00 0.00 0.00 0.00 0.00 0.00 0.00 0.00 0.00 0.00 0.00
0.00 0.00 0.00 0.00 0.00 0.00 0.00 0.00 0.00 0.00 0.00 0.00 0.00 0.00 0.00 0.00 0.00 0.00 0.00 0.00 0.00 0.00 0.00 0.00 0.00 0.00 0.00 0.00 0.00 0.00 0.00 0.00 0.00 0.00 0.00 0.00 0.00 0.00 0.00 0.00 0.00 0.00 0.00 0.00 0.00 0.00 0.00 0.00 0.00
0.00 0.00 0.00 0.00 0.00 0.00 0.00 0.00 0.00 0.00 0.00 0.00 0.00 0.00 0.00 0.00 0.00 0.00 0.00 0.00 0.00 0.00 0.00 0.00 0.00 0.00 0.00 0.00 0.00 0.00 0.00 0.00 0.00 0.00 0.00 0.00 0.00 0.00 0.00 0.00 0.00 0.00 0.00 0.00 0.00 0.00 0.00 0.00 0.00
0.00 0.00 0.00 0.00 0.00 0.00 0.00 0.00 0.00 0.00 0.00 0.00 0.00 0.00 0.00 0.00 0.00 0.00 0.00 0.00 0.00 0.00 0.00 0.00 0.00 0.00 0.00 0.00 0.00 0.00 0.00 0.00 0.00 0.00 0.00 0.00 0.00 0.00 0.00 0.00 0.00 0.00 0.00 0.00 0.00 0.00 0.00 0.00 0.00
0.00 0.00 0.00 0.00 0.00 0.00 0.00 0.00 0.00 0.00 0.00 0.00 0.00 0.00 0.00 0.00 0.00 0.00 0.00 0.00 0.00 0.00 0.00 0.00 0.00 0.00 0.00 0.00 0.00 0.00 0.00 0.00 0.00 0.00 0.00 0.00 0.00 0.00 0.00 0.00 0.00 0.00 0.00 0.00 0.00 0.00 0.00 0.00 0.00
0.00 0.00 0.00 0.00 0.00 0.00 0.00 0.00 0.00 0.00 0.00 0.00 0.00 0.00 0.00 0.00 0.00 0.00 0.00 0.00 0.00 0.00 0.00 0.00 0.00 0.00 0.00 0.00 0.00 0.00 0.00 0.00 0.00 0.00 0.00 0.00 0.00 0.00 0.00 0.00 0.00 0.00 0.00 0.00 0.00 0.00 0.00 0.00 0.00
0.00 0.00 0.00 0.00 0.00 0.00 0.00 0.00 0.00 0.00 0.00 0.00 0.00 0.00 0.00 0.00 0.00 0.00 0.00 0.00 0.00 0.00 0.00 0.00 0.00 0.00 0.00 0.00 0.00 0.00 0.00 0.00 0.00 0.00 0.00 0.00 0.00 0.00 0.00 0.00 0.00 0.00 0.00 0.00 0.00 0.00 0.00 0.00 0.00
0.00 0.00 0.00 0.00 0.00 0.00 0.00 0.00 0.00 0.00 0.00 0.00 0.00 0.00 0.00 0.00 0.00 0.00 0.00 0.00 0.00 0.00 0.00 0.00 0.00 0.00 0.00 0.00 0.00 0.00 0.00 0.00 0.00 0.00 0.00 0.00 0.00 0.00 0.00 0.00 0.00 0.00 0.00 0.00 0.00 0.00 0.00 0.00 0.00
0.00 0.00 0.00 0.00 0.00 0.00 0.00 0.00 0.00 0.00 0.00 0.00 0.00 0.00 0.00 0.00 0.00 0.00 0.00 0.00 0.00 0.00 0.00 0.00 0.00 0.00 0.00 0.00 0.00 0.00 0.00 0.00 0.00 0.00 0.00 0.00 0.00 0.00 0.00 0.00 0.00 0.00 0.00 0.00 0.00 0.00 0.00 0.00 0.00
0.00 0.00 0.00 0.00 0.00 0.00 0.00 0.00 0.00 0.00 0.00 0.00 0.00 0.00 0.00 0.00 0.00 0.00 0.00 0.00 0.00 0.00 0.00 0.00 0.00 0.00 0.00 0.00 0.00 0.00 0.00 0.00 0.00 0.00 0.00 0.00 0.00 0.00 0.00 0.00 0.00 0.00 0.00 0.00 0.00 0.00 0.00 0.00 0.00
0.00 0.00 0.00 0.00 0.00 0.00 0.00 0.00 0.00 0.00 0.00 0.00 0.00 0.00 0.00 0.00 0.00 0.00 0.00 0.00 0.00 0.00 0.00 0.00 0.00 0.00 0.00 0.00 0.00 0.00 0.00 0.00 0.00 0.00 0.00 0.00 0.00 0.00 0.00 0.00 0.00 0.00 0.00 0.00 0.00 0.00 0.00 0.00 0.00
0.00 0.00 0.00 0.00 0.00 0.00 0.00 0.00 0.00 0.00 0.00 0.00 0.00 0.00 0.00 0.00 0.00 0.00 0.00 0.00 0.00 0.00 0.00 0.00 0.00 0.00 0.00 0.00 0.00 0.00 0.00 0.00 0.00 0.00 0.00 0.00 0.00 0.00 0.00 0.00 0.00 0.00 0.00 0.00 0.00 0.00 0.00 0.00 0.00
0.00 0.00 0.00 0.00 0.00 0.00 0.00 0.00 0.00 0.00 0.00 0.00 0.00 0.00 0.00 0.00 0.00 0.00 0.00 0.00 0.00 0.00 0.00 0.00 0.00 0.00 0.00 0.00 0.00 0.00 0.00 0.00 0.00 0.00 0.00 0.00 0.00 0.00 0.00 0.00 0.00 0.00 0.00 0.00 0.00 0.00 0.00 0.00 0.01
MSLP
1013.53 1014.03 1014.67 1015.37 1016.03 1016.60 1017.00 1017.23 1017.30 1017.25 1017.15 1017.06 1017.05 1017.14 1017.35 1017.66 1018.04 1018.46 1018.88 1019.30 1019.71 1020.12 1020.56 1021.03 1021.53 1022.06 1022.57 1023.06 1023.48 1023.81 1024.07 1024.26 1024.41 1024.55 1024.71 1024.89 1025.10 1025.31 1025.52 1025.68 1025.79 1025.85 1025.87 1025.87 1025.87 1025.90 1025.96 1026.05 1026.14
1013.78 1014.35 1015.00 1015.65 1016.21 1016.63 1016.88 1016.97 1016.92 1016.80 1016.68 1016.61 1016.64 1016.78 1017.03 1017.36 1017.74 1018.15 1018.55 1018.95 1019.35 1019.78 1020.25 1020.76 1021.31 1021.89 1022.45 1022.96 1023.41 1023.77 1024.05 1024.27 1024.46 1024.65 1024.86 1025.09 1025.35 1025.60 1025.82 1025.99 1026.09 1026.13 1026.12 1026.09 1026.07 1026.07 1026.12 1026.20 1026.30
1014.15 1014.77 1015.39 1015.93 1016.33 1016.56 1016.62 1016.53 1016.36 1016.17 1016.04 1016.01 1016.11 1016.34 1016.67 1017.06 1017.48 1017.91 1018.31 1018.71 1019.12 1019.56 1020.06 1020.61 1021.20 1021.81 1022.40 1022.94 1023.40 1023.78 1024.07 1024.31 1024.53 1024.75 1024.99 1025.26 1025.54 1025.80 1026.03 1026.19 1026.29 1026.31 1026.29 1026.24 1026.21 1026.20 1026.24 1026.32 1026.42
1014.63 1015.25 1015.80 1016.21 1016.42 1016.44 1016.29 1016.03 1015.73 1015.48 1015.35 1015.37 1015.56 1015.89 1016.31 1016.79 1017.27 1017.73 1018.15 1018.56 1018.98 1019.43 1019.95 1020.52 1021.14 1021.78 1022.39 1022.95 1023.42 1023.81 1024.12 1024.37 1024.60 1024.84 1025.10 1025.37 1025.66 1025.92 1026.15 1026.31 1026.40 1026.43 1026.41 1026.38 1026.35 1026.35 1026.39 1026.46 1026.56
1015.17 1015.76 1016.22 1016.47 1016.50 1016.31 1015.97 1015.55 1015.15 1014.86 1014.73 1014.81 1015.08 1015.50 1016.02 1016.57 1017.10 1017.59 1018.04 1018.46 1018.88 1019.34 1019.85 1020.44 1021.07 1021.72 1022.35 1022.92 1023.41 1023.81 1024.14 1024.40 1024.65 1024.89 1025.15 1025.43 1025.71 1025.98 1026.20 1026.37 1026.48 1026.53 1026.54 1026.54 1026.54 1026.56 1026.60 1026.67 1026.76
1015.67 1016.22 1016.57 1016.69 1016.55 1016.20 1015.71 1015.18 1014.71 1014.39 1014.29 1014.42 1014.75 1015.25 1015.83 1016.44 1017.00 1017.51 1017.95 1018.36 1018.77 1019.21 1019.72 1020.30 1020.93 1021.58 1022.22 1022.80 1023.31 1023.73 1024.07 1024.37 1024.63 1024.89 1025.16 1025.44 1025.72 1025.99 1026.22 1026.41 1026.55 1026.64 1026.70 1026.74 1026.78 1026.83 1026.88 1026.95 1027.01
1016.06 1016.54 1016.80 1016.80 1016.55 1016.10 1015.52 1014.94 1014.44 1014.13 1014.06 1014.23 1014.61 1015.15 1015.76 1016.38 1016.95 1017.45 1017.87 1018.25 1018.62 1019.03 1019.51 1020.06 1020.67 1021.31 1021.95 1022.54 1023.07 1023.52 1023.90 1024.23 1024.53 1024.82 1025.11 1025.41 1025.71 1025.98 1026.24 1026.45 1026.63 1026.77 1026.88 1026.97 1027.05 1027.12 1027.19 1027.24 1027.27
1016.27 1016.67 1016.85 1016.78 1016.47 1015.97 1015.38 1014.80 1014.32 1014.04 1014.00 1014.20 1014.61 1015.15 1015.76 1016.37 1016.91 1017.37 1017.75 1018.08 1018.41 1018.78 1019.21 1019.72 1020.30 1020.92 1021.54 1022.14 1022.69 1023.18 1023.61 1023.99 1024.35 1024.69 1025.03 1025.36 1025.68 1025.98 1026.26 1026.50 1026.71 1026.89 1027.04 1027.17 1027.28 1027.37 1027.44 1027.47 1027.48
1016.29 1016.61 1016.72 1016.60 1016.28 1015.79 1015.24 1014.70 1014.28 1014.05 1014.04 1014.25 1014.65 1015.17 1015.74 1016.30 1016.80 1017.21 1017.55 1017.84 1018.13 1018.45 1018.83 1019.30 1019.83 1020.42 1021.03 1021.62 1022.19 1022.72 1023.21 1023.66 1024.08 1024.49 1024.88 1025.26 1025.62 1025.95 1026.25 1026.52 1026.75 1026.95 1027.13 1027.28 1027.41 1027.51 1027.57 1027.59 1027.58
1016.15 1016.39 1016.44 1016.30 1015.98 1015.55 1015.05 1014.59 1014.22 1014.03 1014.04 1014.23 1014.59 1015.06 1015.58 1016.08 1016.53 1016.91 1017.22 1017.49 1017.75 1018.05 1018.40 1018.82 1019.32 1019.87 1020.45 1021.04 1021.62 1022.18 1022.72 1023.23 1023.73 1024.21 1024.67 1025.11 1025.51 1025.88 1026.20 1026.47 1026.71 1026.92 1027.10 1027.26 1027.39 1027.48 1027.54 1027.56 1027.52
1015.92 1016.07 1016.07 1015.91 1015.62 1015.23 1014.80 1014.40 1014.07 1013.90 1013.88 1014.03 1014.33 1014.72 1015.16 1015.61 1016.02 1016.38 1016.69 1016.97 1017.25 1017.56 1017.91 1018.32 1018.79 1019.32 1019.87 1020.45 1021.03 1021.60 1022.18 1022.74 1023.30 1023.85 1024.38 1024.87 1025.31 1025.70 1026.04 1026.32 1026.55 1026.74 1026.92 1027.06 1027.19 1027.28 1027.34 1027.36 1027.34
1015.71 1015.77 1015.70 1015.52 1015.24 1014.88 1014.49 1014.10 1013.79 1013.58 1013.50 1013.57 1013.76 1014.06 1014.42 1014.81 1015.21 1015.58 1015.93 1016.27 1016.61 1016.97 1017.36 1017.80 1018.27 1018.78 1019.32 1019.87 1020.44 1021.02 1021.61 1022.20 1022.80 1023.39 1023.97 1024.50 1024.98 1025.40 1025.74 1026.02 1026.25 1026.43 1026.58 1026.72 1026.84 1026.94 1027.01 1027.05 1027.05
1015.58 1015.55 1015.43 1015.21 1014.91 1014.54 1014.14 1013.73 1013.37 1013.08 1012.90 1012.84 1012.90 1013.08 1013.36 1013.71 1014.10 1014.51 1014.93 1015.37 1015.81 1016.27 1016.74 1017.23 1017.74 1018.27 1018.80 1019.34 1019.88 1020.44 1021.02 1021.61 1022.22 1022.83 1023.43 1023.99 1024.50 1024.94 1025.30 1025.58 1025.80 1025.98 1026.12 1026.26 1026.38 1026.50 1026.60 1026.68 1026.72
1015.61 1015.49 1015.30 1015.02 1014.68 1014.27 1013.81 1013.34 1012.87 1012.46 1012.13 1011.91 1011.83 1011.88 1012.07 1012.37 1012.76 1013.22 1013.73 1014.28 1014.85 1015.43 1016.01 1016.60 1017.17 1017.74 1018.28 1018.82 1019.34 1019.87 1020.42 1020.98 1021.57 1022.17 1022.76 1023.33 1023.85 1024.31 1024.69 1024.99 1025.22 1025.41 1025.58 1025.73 1025.88 1026.03 1026.18 1026.31 1026.41
1015.76 1015.58 1015.32 1014.98 1014.58 1014.10 1013.56 1012.98 1012.39 1011.82 1011.33 1010.94 1010.70 1010.62 1010.71 1010.95 1011.34 1011.84 1012.43 1013.08 1013.77 1014.47 1015.18 1015.87 1016.53 1017.16 1017.74 1018.28 1018.80 1019.30 1019.80 1020.32 1020.86 1021.41 1021.98 1022.54 1023.06 1023.53 1023.94 1024.28 1024.55 1024.78 1024.98 1025.18 1025.38 1025.58 1025.79 1025.98 1026.14
1016.00 1015.76 1015.45 1015.07 1014.61 1014.06 1013.44 1012.75 1012.02 1011.30 1010.64 1010.09 1009.69 1009.48 1009.47 1009.65 1010.01 1010.52 1011.15 1011.87 1012.64 1013.45 1014.26 1015.05 1015.80 1016.50 1017.14 1017.71 1018.23 1018.71 1019.17 1019.63 1020.10 1020.60 1021.12 1021.64 1022.16 1022.65 1023.09 1023.47 1023.81 1024.10 1024.36 1024.62 1024.88 1025.15 1025.41 1025.66 1025.87
1016.23 1015.97 1015.64 1015.23 1014.74 1014.15 1013.45 1012.66 1011.82 1010.97 1010.17 1009.48 1008.96 1008.63 1008.53 1008.63 1008.94 1009.42 1010.04 1010.77 1011.57 1012.42 1013.29 1014.16 1014.99 1015.76 1016.47 1017.09 1017.63 1018.10 1018.52 1018.93 1019.33 1019.75 1020.21 1020.69 1021.19 1021.68 1022.16 1022.60 1023.00 1023.37 1023.71 1024.04 1024.36 1024.69 1025.00 1025.30 1025.56
1016.38 1016.13 1015.82 1015.43 1014.94 1014.32 1013.59 1012.74 1011.82 1010.88 1009.99 1009.20 1008.59 1008.18 1007.99 1008.02 1008.25 1008.66 1009.22 1009.89 1010.66 1011.49 1012.36 1013.25 1014.13 1014.97 1015.74 1016.42 1016.99 1017.47 1017.88 1018.23 1018.57 1018.91 1019.30 1019.72 1020.19 1020.68 1021.19 1021.68 1022.15 1022.59 1023.00 1023.39 1023.77 1024.15 1024.51 1024.84 1025.13
1016.40 1016.21 1015.96 1015.62 1015.16 1014.57 1013.83 1012.96 1012.00 1011.01 1010.07 1009.24 1008.58 1008.12 1007.87 1007.84 1007.99 1008.31 1008.75 1009.32 1009.98 1010.72 1011.54 1012.40 1013.29 1014.16 1014.98 1015.71 1016.34 1016.84 1017.24 1017.56 1017.83 1018.11 1018.41 1018.78 1019.20 1019.67 1020.19 1020.71 1021.23 1021.73 1022.20 1022.64 1023.07 1023.47 1023.85 1024.21 1024.52
1016.31 1016.20 1016.04 1015.79 1015.40 1014.85 1014.13 1013.26 1012.30 1011.30 1010.35 1009.52 1008.86 1008.39 1008.12 1008.04 1008.12 1008.34 1008.66 1009.07 1009.58 1010.19 1010.89 1011.67 1012.52 1013.39 1014.23 1015.01 1015.67 1016.20 1016.61 1016.90 1017.13 1017.34 1017.57 1017.86 1018.23 1018.67 1019.17 1019.71 1020.26 1020.79 1021.30 1021.77 1022.21 1022.62 1023.00 1023.36 1023.68
1016.15 1016.16 1016.11 1015.96 1015.65 1015.15 1014.45 1013.60 1012.63 1011.65 1010.71 1009.91 1009.28 1008.84 1008.60 1008.51 1008.54 1008.67 1008.87 1009.13 1009.46 1009.90 1010.44 1011.10 1011.86 1012.69 1013.53 1014.32 1015.01 1015.56 1015.98 1016.25 1016.44 1016.59 1016.75 1016.97 1017.28 1017.68 1018.15 1018.69 1019.23 1019.78 1020.29 1020.75 1021.19 1021.58 1021.95 1022.30 1022.63
1016.02 1016.15 1016.23 1016.17 1015.92 1015.45 1014.77 1013.90 1012.93 1011.94 1011.03 1010.26 1009.69 1009.32 1009.12 1009.07 1009.10 1009.18 1009.27 1009.40 1009.57 1009.82 1010.19 1010.70 1011.34 1012.08 1012.87 1013.65 1014.34 1014.90 1015.31 1015.58 1015.74 1015.84 1015.94 1016.10 1016.34 1016.69 1017.13 1017.63 1018.17 1018.69 1019.19 1019.64 1020.04 1020.41 1020.75 1021.09 1021.41
1015.99 1016.25 1016.43 1016.44 1016.23 1015.77 1015.05 1014.14 1013.13 1012.12 1011.21 1010.47 1009.96 1009.67 1009.56 1009.57 1009.64 1009.71 1009.75 1009.77 1009.80 1009.89 1010.09 1010.43 1010.92 1011.55 1012.26 1012.98 1013.64 1014.19 1014.60 1014.85 1014.98 1015.05 1015.10 1015.21 1015.40 1015.70 1016.10 1016.57 1017.07 1017.57 1018.04 1018.45 1018.82 1019.15 1019.47 1019.78 1020.10
1016.10 1016.47 1016.73 1016.78 1016.57 1016.07 1015.29 1014.30 1013.22 1012.15 1011.22 1010.51 1010.05 1009.84 1009.82 1009.91 1010.05 1010.15 1010.18 1010.15 1010.07 1010.03 1010.07 1010.24 1010.58 1011.07 1011.66 1012.30 1012.91 1013.42 1013.80 1014.04 1014.15 1014.19 1014.22 1014.29 1014.44 1014.71 1015.07 1015.50 1015.98 1016.44 1016.88 1017.26 1017.59 1017.89 1018.17 1018.47 1018.79
1016.33 1016.78 1017.08 1017.15 1016.91 1016.33 1015.46 1014.38 1013.20 1012.06 1011.10 1010.39 1009.97 1009.82 1009.89 1010.08 1010.29 1010.45 1010.50 1010.44 1010.30 1010.15 1010.05 1010.08 1010.26 1010.60 1011.07 1011.60 1012.12 1012.58 1012.92 1013.13 1013.23 1013.26 1013.27 1013.32 1013.46 1013.69 1014.03 1014.43 1014.88 1015.32 1015.73 1016.09 1016.39 1016.66 1016.93 1017.22 1017.54
1016.61 1017.10 1017.42 1017.47 1017.17 1016.51 1015.55 1014.37 1013.11 1011.91 1010.90 1010.18 1009.79 1009.69 1009.83 1010.09 1010.38 1010.59 1010.67 1010.61 1010.43 1010.21 1010.01 1009.90 1009.94 1010.14 1010.46 1010.87 1011.30 1011.68 1011.98 1012.16 1012.24 1012.26 1012.27 1012.32 1012.44 1012.66 1012.98 1013.37 1013.79 1014.22 1014.61 1014.95 1015.24 1015.50 1015.76 1016.05 1016.39
1016.86 1017.35 1017.64 1017.64 1017.28 1016.56 1015.53 1014.29 1012.98 1011.74 1010.72 1010.00 1009.62 1009.55 1009.72 1010.03 1010.36 1010.61 1010.72 1010.66 1010.46 1010.18 1009.90 1009.69 1009.60 1009.67 1009.86 1010.15 1010.48 1010.78 1011.02 1011.17 1011.23 1011.25 1011.25 1011.30 1011.41 1011.62 1011.92 1012.30 1012.70 1013.11 1013.49 1013.83 1014.13 1014.40 1014.67 1014.98 1015.33
1016.95 1017.40 1017.64 1017.58 1017.18 1016.43 1015.38 1014.14 1012.84 1011.62 1010.62 1009.92 1009.55 1009.50 1009.68 1010.00 1010.33 1010.58 1010.68 1010.61 1010.39 1010.08 1009.74 1009.45 1009.27 1009.22 1009.30 1009.48 1009.71 1009.93 1010.11 1010.22 1010.26 1010.26 1010.26 1010.29 1010.40 1010.59 1010.87 1011.22 1011.60 1012.00 1012.37 1012.72 1013.03 1013.33 1013.63 1013.97 1014.35
1016.84 1017.19 1017.35 1017.24 1016.82 1016.08 1015.08 1013.91 1012.70 1011.57 1010.65 1010.00 1009.66 1009.60 1009.76 1010.04 1010.33 1010.54 1010.61 1010.51 1010.27 1009.93 1009.55 1009.21 1008.97 1008.84 1008.83 1008.92 1009.06 1009.20 1009.32 1009.38 1009.39 1009.36 1009.34 1009.35 1009.42 1009.58 1009.82 1010.13 1010.48 1010.86 1011.23 1011.58 1011.92 1012.26 1012.60 1012.98 1013.41
1016.53 1016.74 1016.80 1016.63 1016.21 1015.53 1014.64 1013.62 1012.56 1011.58 1010.78 1010.22 1009.92 1009.86 1009.98 1010.19 1010.40 1010.54 1010.54 1010.40 1010.13 1009.77 1009.37 1009.01 1008.73 1008.56 1008.49 1008.51 1008.57 1008.64 1008.69 1008.70 1008.66 1008.59 1008.53 1008.49 1008.52 1008.62 1008.79 1009.05 1009.35 1009.69 1010.05 1010.41 1010.78 1011.15 1011.56 1011.99 1012.47
Thickness
5745 5747 5748 5738 5716 5706 5706 5723 5731 5727 5727 5729 5728 5725 5720 5717 5708 5695 5697 5705 5701 5693 5687 5682 5678 5674 5670 5667 5664 5661 5659 5657 5655 5653 5652 5651 5649 5649 5648 5647 5646 5646 5645 5645 5645 5645 5645 5645 5645
5747 5751 5743 5728 5707 5695 5710 5729 5729 5727 5728 5727 5725 5722 5721 5720 5713 5704 5702 5705 5700 5694 5687 5682 5677 5673 5669 5665 5662 5659 5657 5654 5652 5650 5648 5646 5645 5644 5643 5642 5641 5640 5640 5640 5639 5639 5639 5639 5639
5748 5751 5733 5719 5707 5703 5715 5730 5729 5726 5729 5725 5722 5724 5723 5719 5713 5706 5708 5706 5700 5694 5687 5682 5677 5672 5668 5664 5661 5657 5654 5651 5649 5646 5644 5642 5641 5639 5638 5637 5636 5635 5634 5634 5634 5633 5633 5633 5633
5748 5740 5732 5717 5710 5726 5734 5737 5735 5726 5724 5725 5724 5721 5724 5724 5721 5714 5710 5705 5699 5694 5687 5681 5676 5671 5667 5663 5659 5655 5652 5649 5646 5643 5641 5639 5637 5635 5633 5632 5631 5630 5629 5629 5628 5628 5627 5627 5627
5745 5731 5716 5709 5716 5734 5746 5747 5740 5730 5726 5724 5721 5719 5718 5719 5721 5714 5707 5703 5698 5693 5687 5680 5675 5670 5666 5662 5658 5654 5650 5647 5643 5641 5638 5636 5633 5631 5629 5628 5626 5625 5624 5623 5623 5622 5621 5621 5621
5733 5728 5707 5704 5720 5739 5748 5750 5742 5733 5730 5731 5723 5716 5719 5715 5714 5709 5704 5701 5697 5693 5686 5678 5674 5669 5665 5660 5656 5652 5649 5645 5641 5638 5636 5633 5630 5628 5626 5624 5622 5621 5620 5619 5618 5617 5616 5615 5615
5725 5716 5706 5710 5716 5727 5741 5746 5738 5732 5729 5731 5729 5718 5716 5709 5711 5708 5702 5699 5695 5691 5686 5678 5673 5668 5664 5660 5656 5651 5647 5644 5640 5636 5633 5630 5628 5625 5623 5621 5619 5617 5616 5614 5613 5612 5610 5610 5609
5730 5716 5707 5709 5713 5722 5739 5739 5736 5729 5726 5738 5733 5719 5720 5712 5709 5705 5699 5695 5693 5689 5685 5678 5672 5668 5663 5659 5655 5651 5647 5643 5639 5635 5631 5628 5625 5623 5620 5618 5616 5614 5612 5610 5608 5607 5605 5604 5604
5731 5707 5699 5708 5715 5723 5736 5732 5735 5734 5724 5729 5731 5727 5718 5715 5707 5700 5694 5691 5689 5687 5684 5680 5674 5668 5663 5659 5654 5650 5646 5642 5638 5633 5629 5625 5622 5620 5617 5615 5612 5610 5608 5606 5604 5602 5601 5600 5599
5722 5699 5707 5724 5728 5727 5729 5727 5729 5727 5719 5720 5723 5720 5714 5708 5702 5697 5694 5691 5690 5687 5684 5681 5676 5670 5665 5660 5655 5650 5645 5641 5637 5632 5628 5624 5621 5619 5616 5613 5610 5607 5604 5602 5600 5598 5597 5596 5594
5723 5712 5721 5729 5733 5729 5724 5724 5729 5722 5717 5721 5723 5722 5714 5706 5702 5698 5697 5696 5694 5690 5685 5682 5678 5673 5668 5662 5657 5651 5646 5641 5636 5632 5627 5623 5620 5617 5614 5610 5607 5604 5601 5598 5597 5595 5593 5592 5590
5724 5723 5727 5729 5732 5724 5720 5722 5723 5723 5727 5736 5737 5735 5719 5710 5706 5704 5702 5699 5695 5691 5687 5683 5679 5675 5669 5664 5659 5652 5647 5642 5637 5633 5628 5623 5620 5617 5613 5609 5605 5602 5599 5596 5594 5591 5589 5587 5585
5721 5721 5728 5731 5728 5723 5719 5715 5715 5724 5734 5739 5739 5735 5721 5715 5711 5709 5707 5703 5698 5693 5688 5684 5680 5675 5670 5664 5659 5654 5649 5644 5639 5634 5629 5624 5620 5616 5612 5608 5604 5601 5597 5594 5590 5588 5585 5583 5580
5720 5719 5720 5725 5726 5725 5718 5716 5714 5727 5737 5737 5736 5733 5727 5720 5715 5710 5706 5704 5701 5697 5691 5685 5680 5675 5669 5664 5659 5654 5649 5644 5638 5633 5629 5624 5619 5614 5610 5606 5602 5598 5595 5591 5587 5583 5581 5577 5574
5715 5707 5712 5724 5726 5724 5716 5709 5715 5732 5737 5735 5736 5735 5731 5726 5719 5715 5712 5709 5706 5700 5694 5686 5680 5674 5669 5663 5657 5652 5647 5643 5638 5632 5627 5622 5617 5613 5608 5604 5599 5595 5591 5586 5582 5578 5574 5571 5568
5707 5700 5699 5726 5727 5716 5701 5700 5723 5737 5737 5733 5735 5736 5734 5731 5727 5723 5718 5712 5707 5701 5695 5688 5680 5673 5668 5662 5656 5650 5645 5641 5636 5631 5625 5620 5615 5610 5605 5600 5596 5591 5586 5581 5576 5571 5567 5563 5559
5699 5693 5699 5710 5718 5714 5699 5700 5724 5732 5733 5733 5736 5738 5738 5736 5733 5729 5724 5717 5710 5703 5696 5688 5681 5673 5666 5659 5653 5648 5643 5639 5634 5629 5624 5618 5612 5606 5602 5597 5592 5586 5581 5576 5570 5565 5560 5555 5551
5687 5686 5690 5693 5710 5710 5700 5706 5724 5731 5732 5733 5736 5738 5738 5737 5737 5735 5729 5721 5712 5704 5696 5687 5679 5671 5663 5656 5649 5643 5639 5636 5632 5628 5622 5616 5610 5603 5598 5593 5587 5582 5576 5570 5563 5558 5553 5547 5542
5688 5683 5681 5693 5710 5703 5697 5702 5717 5727 5729 5728 5729 5730 5731 5732 5737 5737 5731 5721 5711 5702 5693 5686 5677 5669 5661 5655 5648 5643 5638 5634 5630 5626 5620 5614 5608 5601 5594 5588 5582 5577 5571 5565 5558 5550 5543 5537 5531
5682 5677 5681 5695 5706 5697 5694 5700 5716 5726 5727 5725 5722 5720 5720 5722 5725 5725 5722 5714 5706 5698 5691 5683 5676 5668 5661 5655 5648 5642 5635 5630 5626 5621 5616 5611 5605 5598 5591 5584 5578 5572 5565 5559 5552 5544 5536 5529 5522
5680 5677 5680 5680 5687 5695 5692 5691 5713 5720 5722 5719 5716 5714 5713 5712 5711 5711 5710 5705 5699 5693 5687 5681 5674 5667 5659 5651 5642 5635 5628 5624 5621 5617 5613 5608 5602 5595 5588 5581 5573 5567 5560 5554 5547 5540 5531 5522 5516
5673 5684 5678 5673 5666 5668 5678 5661 5691 5708 5706 5705 5702 5701 5701 5703 5703 5702 5700 5697 5692 5688 5683 5676 5670 5663 5656 5646 5639 5633 5628 5626 5624 5616 5609 5603 5597 5590 5584 5576 5568 5561 5555 5548 5542 5534 5526 5516 5508
5678 5680 5674 5668 5661 5658 5673 5664 5680 5702 5693 5692 5693 5694 5694 5695 5695 5694 5693 5690 5687 5682 5676 5670 5664 5657 5650 5643 5636 5628 5624 5621 5613 5607 5602 5597 5591 5585 5578 5570 5562 5555 5549 5543 5535 5528 5520 5513 5505
5673 5671 5672 5666 5657 5649 5675 5667 5669 5690 5690 5688 5687 5688 5688 5688 5687 5685 5684 5682 5679 5674 5669 5662 5656 5650 5644 5637 5630 5623 5618 5611 5604 5600 5595 5590 5585 5580 5573 5565 5557 5550 5543 5535 5528 5520 5513 5507 5499
5665 5657 5651 5648 5638 5652 5672 5664 5668 5694 5694 5688 5682 5680 5680 5679 5676 5673 5672 5670 5667 5664 5659 5654 5648 5642 5636 5629 5623 5618 5611 5603 5598 5594 5588 5583 5579 5574 5569 5560 5552 5545 5537 5528 5519 5512 5506 5499 5492
5663 5654 5638 5629 5636 5649 5666 5658 5677 5697 5692 5687 5681 5676 5674 5671 5667 5665 5662 5659 5657 5655 5651 5645 5639 5633 5628 5622 5616 5610 5604 5598 5593 5587 5581 5577 5574 5569 5563 5555 5548 5540 5531 5522 5513 5505 5499 5491 5485
5657 5654 5652 5635 5635 5632 5650 5672 5688 5694 5684 5678 5672 5667 5663 5661 5659 5655 5653 5650 5647 5644 5641 5636 5631 5625 5620 5614 5608 5603 5597 5591 5586 5581 5575 5571 5566 5561 5555 5549 5542 5535 5526 5517 5507 5500 5493 5485 5478
5651 5645 5638 5628 5620 5618 5642 5655 5660 5673 5671 5669 5663 5656 5654 5652 5648 5646 5642 5639 5637 5634 5630 5627 5622 5617 5612 5607 5601 5596 5590 5585 5580 5573 5569 5564 5559 5553 5547 5542 5535 5528 5520 5511 5502 5495 5487 5478 5472
5638 5637 5633 5628 5627 5613 5611 5637 5674 5669 5667 5660 5654 5649 5646 5643 5639 5635 5632 5630 5627 5623 5620 5616 5612 5608 5602 5597 5592 5586 5581 5576 5571 5567 5563 5558 5552 5546 5540 5535 5528 5522 5514 5506 5497 5490 5480 5471 5463
5650 5644 5635 5617 5618 5622 5611 5631 5674 5670 5661 5652 5645 5642 5639 5635 5631 5627 5623 5620 5616 5612 5609 5605 5602 5597 5592 5586 5581 5576 5571 5567 5562 5558 5555 5550 5545 5540 5534 5528 5522 5516 5509 5500 5492 5484 5475 5466 5458